Location: Unspecified
(49.2170°N, 0.0000°E)
Time: 03:19:29
(UTC+00:00)

Vanguard 3 - Pass Details

Date: 01 July 2019
Orbit: 507 x 3264 km, 33.4° (Epoch: 22 July)

Event Time Altitude Azimuth Distance (km) Brightness Sun altitude
Rises 05:12:50 0° 178° (S) 7,115 11.7 9.5°
Reaches altitude 10° 05:22:47 10° 154° (SSE) 6,189 11.7 11.0°
Maximum altitude 05:28:42 12° 136° (SE) 5,902 11.9 11.9°
Drops below altitude 10° 05:34:20 10° 118° (ESE) 5,885 12.2 12.7°
Sets 05:42:52 0° 93° (E) 6,395 13.1 14.0°
